Time,TemperatureF,DewpointF,PressureIn,WindDirection,WindDirectionDegrees,WindSpeedMPH,WindSpeedGustMPH,Humidity,HourlyPrecipIn,Conditions,Clouds,dailyrainin,SoftwareType,DateUTC
2013-01-27 00:04:00,13.0,5.0,30.38,SSW,202,0.0,0.0,74,0.00,,,0.00,TxWx,2013-01-27 05:04:00,
2013-01-27 00:09:00,13.0,5.0,30.38,North,0,0.0,0.0,74,0.00,,,0.00,TxWx,2013-01-27 05:09:00,
2013-01-27 00:14:00,13.0,5.0,30.38,West,270,0.0,0.0,74,0.00,,,0.00,TxWx,2013-01-27 05:14:00,
2013-01-27 00:20:00,13.0,5.0,30.38,WNW,292,0.0,0.0,74,0.00,,,0.00,TxWx,2013-01-27 05:20:00,
2013-01-27 00:25:00,13.0,5.0,30.38,NNE,22,0.0,0.0,74,0.00,,,0.00,TxWx,2013-01-27 05:25:00,
2013-01-27 00:30:00,12.0,4.0,30.38,North,0,0.0,0.0,74,0.00,,,0.00,TxWx,2013-01-27 05:30:00,
2013-01-27 00:35:00,11.0,4.0,30.38,North,0,0.0,0.0,75,0.00,,,0.00,TxWx,2013-01-27 05:35:00,
2013-01-27 00:40:00,11.0,4.0,30.38,NNE,22,0.0,0.0,76,0.00,,,0.00,TxWx,2013-01-27 05:40:00,
2013-01-27 00:45:00,11.0,4.0,30.38,NE,45,0.0,0.0,77,0.00,,,0.00,TxWx,2013-01-27 05:45:00,
2013-01-27 00:50:00,11.0,4.0,30.39,ESE,112,0.0,0.0,77,0.00,,,0.00,TxWx,2013-01-27 05:50:00,
2013-01-27 00:55:00,11.0,4.0,30.39,ESE,112,0.0,0.0,78,0.00,,,0.00,TxWx,2013-01-27 05:55:00,
2013-01-27 01:00:00,11.0,4.0,30.39,ESE,112,0.0,0.0,78,0.00,,,0.00,TxWx,2013-01-27 06:00:00,
2013-01-27 01:05:00,11.0,4.0,30.39,NNE,22,2.0,2.0,78,0.00,,,0.00,TxWx,2013-01-27 06:05:00,
2013-01-27 01:10:00,10.0,4.0,30.39,NNE,22,0.0,0.0,78,0.00,,,0.00,TxWx,2013-01-27 06:10:00,
2013-01-27 01:15:00,10.0,4.0,30.39,ESE,112,0.0,0.0,79,0.00,,,0.00,TxWx,2013-01-27 06:15:00,
2013-01-27 01:20:00,10.0,4.0,30.39,SE,135,0.0,0.0,80,0.00,,,0.00,TxWx,2013-01-27 06:20:00,
2013-01-27 01:26:00,10.0,4.0,30.39,North,0,0.0,0.0,81,0.00,,,0.00,TxWx,2013-01-27 06:26:00,
2013-01-27 01:31:00,11.0,5.0,30.39,SW,225,3.0,3.0,81,0.00,,,0.00,TxWx,2013-01-27 06:31:00,
2013-01-27 01:37:00,12.0,6.0,30.40,SW,225,4.0,5.0,82,0.00,,,0.00,TxWx,2013-01-27 06:37:00,
2013-01-27 01:42:00,12.0,7.0,30.40,West,270,3.0,4.0,82,0.00,,,0.00,TxWx,2013-01-27 06:42:00,
2013-01-27 01:47:00,12.0,7.0,30.40,NE,45,5.0,5.0,82,0.00,,,0.00,TxWx,2013-01-27 06:47:00,
2013-01-27 01:52:00,10.0,4.0,30.40,North,0,0.0,0.0,81,0.00,,,0.00,TxWx,2013-01-27 06:52:00,
2013-01-27 01:57:00,10.0,5.0,30.41,North,0,0.0,0.0,82,0.00,,,0.00,TxWx,2013-01-27 06:57:00,
2013-01-27 02:02:00,10.0,5.0,30.41,NW,315,0.0,0.0,83,0.00,,,0.00,TxWx,2013-01-27 07:02:00,
2013-01-27 02:07:00,10.0,5.0,30.41,NNW,337,0.0,0.0,83,0.00,,,0.00,TxWx,2013-01-27 07:07:00,
2013-01-27 02:17:00,10.0,5.0,30.41,NE,45,3.0,3.0,84,0.00,,,0.00,TxWx,2013-01-27 07:17:00,
2013-01-27 02:22:00,9.0,4.0,30.41,NNE,22,3.0,3.0,83,0.00,,,0.00,TxWx,2013-01-27 07:22:00,
2013-01-27 02:27:00,9.0,4.0,30.42,North,0,0.0,0.0,84,0.00,,,0.00,TxWx,2013-01-27 07:27:00,
2013-01-27 02:32:00,9.0,4.0,30.41,West,270,0.0,0.0,84,0.00,,,0.00,TxWx,2013-01-27 07:32:00,
2013-01-27 02:37:00,9.0,4.0,30.41,West,270,0.0,0.0,85,0.00,,,0.00,TxWx,2013-01-27 07:37:00,
2013-01-27 02:42:00,9.0,4.0,30.42,WNW,292,0.0,2.0,85,0.00,,,0.00,TxWx,2013-01-27 07:42:00,
2013-01-27 02:47:00,9.0,4.0,30.42,South,180,0.0,0.0,85,0.00,,,0.00,TxWx,2013-01-27 07:47:00,
2013-01-27 02:52:00,10.0,6.0,30.42,South,180,0.0,0.0,86,0.00,,,0.00,TxWx,2013-01-27 07:52:00,
2013-01-27 02:59:00,10.0,6.0,30.42,SSW,202,0.0,0.0,86,0.00,,,0.00,TxWx,2013-01-27 07:59:00,
2013-01-27 03:04:00,10.0,6.0,30.42,SSW,202,0.0,0.0,86,0.00,,,0.00,TxWx,2013-01-27 08:04:00,
2013-01-27 03:09:00,10.0,6.0,30.42,SW,225,0.0,0.0,86,0.00,,,0.00,TxWx,2013-01-27 08:09:00,
2013-01-27 03:14:00,10.0,6.0,30.42,NE,45,3.0,4.0,86,0.00,,,0.00,TxWx,2013-01-27 08:14:00,
2013-01-27 03:19:00,8.0,4.0,30.43,ENE,67,0.0,0.0,86,0.00,,,0.00,TxWx,2013-01-27 08:19:00,
2013-01-27 03:24:00,8.0,4.0,30.42,WSW,247,0.0,0.0,86,0.00,,,0.00,TxWx,2013-01-27 08:24:00,
2013-01-27 03:29:00,8.0,4.0,30.43,NW,315,0.0,0.0,87,0.00,,,0.00,TxWx,2013-01-27 08:29:00,
2013-01-27 03:34:00,8.0,4.0,30.43,NNE,22,0.0,0.0,87,0.00,,,0.00,TxWx,2013-01-27 08:34:00,
2013-01-27 03:39:00,8.0,4.0,30.42,NNE,22,0.0,0.0,88,0.00,,,0.00,TxWx,2013-01-27 08:39:00,
2013-01-27 03:44:00,8.0,4.0,30.42,NNE,22,0.0,0.0,88,0.00,,,0.00,TxWx,2013-01-27 08:44:00,
2013-01-27 03:49:00,8.0,4.0,30.43,East,90,0.0,0.0,88,0.00,,,0.00,TxWx,2013-01-27 08:49:00,
2013-01-27 03:55:00,8.0,4.0,30.43,East,90,0.0,0.0,88,0.00,,,0.00,TxWx,2013-01-27 08:55:00,
2013-01-27 04:00:00,8.0,4.0,30.43,NE,45,0.0,0.0,89,0.00,,,0.00,TxWx,2013-01-27 09:00:00,
2013-01-27 04:05:00,8.0,4.0,30.43,NE,45,0.0,0.0,89,0.00,,,0.00,TxWx,2013-01-27 09:05:00,
2013-01-27 04:10:00,8.0,4.0,30.43,NE,45,0.0,0.0,89,0.00,,,0.00,TxWx,2013-01-27 09:10:00,
2013-01-27 04:15:00,8.0,4.0,30.44,West,270,0.0,0.0,89,0.00,,,0.00,TxWx,2013-01-27 09:15:00,
2013-01-27 04:20:00,8.0,4.0,30.44,NW,315,0.0,0.0,89,0.00,,,0.00,TxWx,2013-01-27 09:20:00,
2013-01-27 04:25:00,8.0,5.0,30.44,NNE,22,0.0,0.0,90,0.00,,,0.00,TxWx,2013-01-27 09:25:00,
2013-01-27 04:30:00,8.0,5.0,30.44,ENE,67,0.0,0.0,90,0.00,,,0.00,TxWx,2013-01-27 09:30:00,
2013-01-27 04:35:00,8.0,5.0,30.44,ESE,112,0.0,0.0,90,0.00,,,0.00,TxWx,2013-01-27 09:35:00,
2013-01-27 04:40:00,8.0,5.0,30.44,WNW,292,1.0,2.0,90,0.00,,,0.00,TxWx,2013-01-27 09:40:00,
2013-01-27 04:45:00,8.0,5.0,30.44,West,270,0.0,0.0,90,0.00,,,0.00,TxWx,2013-01-27 09:45:00,
2013-01-27 04:50:00,8.0,5.0,30.45,NNE,22,0.0,0.0,90,0.00,,,0.00,TxWx,2013-01-27 09:50:00,
2013-01-27 04:55:00,7.0,4.0,30.44,NE,45,0.0,0.0,90,0.00,,,0.00,TxWx,2013-01-27 09:55:00,
2013-01-27 05:00:00,7.0,4.0,30.45,NE,45,0.0,0.0,91,0.00,,,0.00,TxWx,2013-01-27 10:00:00,
2013-01-27 05:06:00,7.0,4.0,30.45,NNE,22,0.0,0.0,91,0.00,,,0.00,TxWx,2013-01-27 10:06:00,
2013-01-27 05:11:00,7.0,4.0,30.45,ENE,67,0.0,0.0,91,0.00,,,0.00,TxWx,2013-01-27 10:11:00,
2013-01-27 05:16:00,7.0,4.0,30.45,NE,45,0.0,0.0,91,0.00,,,0.00,TxWx,2013-01-27 10:16:00,
2013-01-27 05:21:00,7.0,4.0,30.46,NE,45,0.0,0.0,91,0.00,,,0.00,TxWx,2013-01-27 10:21:00,
2013-01-27 05:26:00,6.0,3.0,30.46,NE,45,0.0,0.0,91,0.00,,,0.00,TxWx,2013-01-27 10:26:00,
2013-01-27 05:31:00,6.0,3.0,30.46,NNE,22,0.0,0.0,91,0.00,,,0.00,TxWx,2013-01-27 10:31:00,
2013-01-27 05:36:00,6.0,3.0,30.47,NNE,22,0.0,0.0,92,0.00,,,0.00,TxWx,2013-01-27 10:36:00,
2013-01-27 05:41:00,6.0,3.0,30.47,NE,45,0.0,0.0,92,0.00,,,0.00,TxWx,2013-01-27 10:41:00,
2013-01-27 05:46:00,6.0,3.0,30.47,West,270,0.0,0.0,92,0.00,,,0.00,TxWx,2013-01-27 10:46:00,
2013-01-27 05:51:00,6.0,3.0,30.47,North,0,0.0,0.0,92,0.00,,,0.00,TxWx,2013-01-27 10:51:00,
2013-01-27 05:56:00,6.0,3.0,30.47,NNE,22,0.0,0.0,93,0.00,,,0.00,TxWx,2013-01-27 10:56:00,
2013-01-27 06:01:00,7.0,4.0,30.47,ENE,67,0.0,0.0,93,0.00,,,0.00,TxWx,2013-01-27 11:01:00,
2013-01-27 06:06:00,7.0,4.0,30.48,ENE,67,0.0,0.0,93,0.00,,,0.00,TxWx,2013-01-27 11:06:00,
2013-01-27 06:12:00,6.0,3.0,30.48,North,0,0.0,0.0,93,0.00,,,0.00,TxWx,2013-01-27 11:12:00,
2013-01-27 06:17:00,6.0,3.0,30.48,WNW,292,0.0,0.0,93,0.00,,,0.00,TxWx,2013-01-27 11:17:00,
2013-01-27 06:22:00,6.0,3.0,30.48,SSW,202,0.0,0.0,93,0.00,,,0.00,TxWx,2013-01-27 11:22:00,
2013-01-27 06:27:00,7.0,4.0,30.49,NNW,337,0.0,0.0,93,0.00,,,0.00,TxWx,2013-01-27 11:27:00,
2013-01-27 06:32:00,5.0,2.0,30.49,NNE,22,3.0,3.0,92,0.00,,,0.00,TxWx,2013-01-27 11:32:00,
2013-01-27 06:37:00,5.0,2.0,30.49,NNW,337,2.0,3.0,93,0.00,,,0.00,TxWx,2013-01-27 11:37:00,
2013-01-27 06:42:00,5.0,3.0,30.49,NNE,22,0.0,0.0,94,0.00,,,0.00,TxWx,2013-01-27 11:42:00,
2013-01-27 06:47:00,6.0,4.0,30.50,North,0,0.0,0.0,94,0.00,,,0.00,TxWx,2013-01-27 11:47:00,
2013-01-27 06:52:00,6.0,4.0,30.50,NE,45,0.0,0.0,94,0.00,,,0.00,TxWx,2013-01-27 11:52:00,
2013-01-27 06:57:00,6.0,4.0,30.50,North,0,0.0,0.0,94,0.00,,,0.00,TxWx,2013-01-27 11:57:00,
2013-01-27 07:02:00,7.0,5.0,30.50,NNE,22,0.0,0.0,94,0.00,,,0.00,TxWx,2013-01-27 12:02:00,
2013-01-27 07:07:00,7.0,5.0,30.50,NE,45,0.0,0.0,94,0.00,,,0.00,TxWx,2013-01-27 12:07:00,
2013-01-27 07:13:00,6.0,4.0,30.50,NE,45,0.0,0.0,94,0.00,,,0.00,TxWx,2013-01-27 12:13:00,
2013-01-27 07:18:00,5.0,3.0,30.50,NE,45,0.0,0.0,94,0.00,,,0.00,TxWx,2013-01-27 12:18:00,
2013-01-27 07:23:00,5.0,3.0,30.51,NNE,22,0.0,0.0,94,0.00,,,0.00,TxWx,2013-01-27 12:23:00,
2013-01-27 07:28:00,5.0,3.0,30.51,NE,45,0.0,0.0,94,0.00,,,0.00,TxWx,2013-01-27 12:28:00,
2013-01-27 07:33:00,5.0,3.0,30.51,ENE,67,0.0,0.0,94,0.00,,,0.00,TxWx,2013-01-27 12:33:00,
2013-01-27 07:38:00,5.0,3.0,30.51,ENE,67,0.0,0.0,94,0.00,,,0.00,TxWx,2013-01-27 12:38:00,
2013-01-27 07:43:00,6.0,4.0,30.52,ENE,67,0.0,0.0,95,0.00,,,0.00,TxWx,2013-01-27 12:43:00,
2013-01-27 07:48:00,7.0,5.0,30.52,ENE,67,0.0,0.0,95,0.00,,,0.00,TxWx,2013-01-27 12:48:00,
2013-01-27 07:53:00,7.0,5.0,30.52,ENE,67,0.0,0.0,95,0.00,,,0.00,TxWx,2013-01-27 12:53:00,
2013-01-27 07:58:00,7.0,5.0,30.52,ENE,67,0.0,0.0,95,0.00,,,0.00,TxWx,2013-01-27 12:58:00,
2013-01-27 08:03:00,7.0,5.0,30.52,ENE,67,0.0,0.0,95,0.00,,,0.00,TxWx,2013-01-27 13:03:00,
2013-01-27 08:08:00,7.0,5.0,30.52,ENE,67,0.0,0.0,95,0.00,,,0.00,TxWx,2013-01-27 13:08:00,
2013-01-27 08:13:00,8.0,6.0,30.52,ENE,67,0.0,0.0,95,0.00,,,0.00,TxWx,2013-01-27 13:13:00,
2013-01-27 08:18:00,9.0,7.0,30.52,SW,225,4.0,4.0,95,0.00,,,0.00,TxWx,2013-01-27 13:18:00,
2013-01-27 08:24:00,12.0,10.0,30.52,SW,225,4.0,6.0,96,0.00,,,0.00,TxWx,2013-01-27 13:24:00,
2013-01-27 08:29:00,13.0,10.0,30.52,WSW,247,10.0,11.0,93,0.00,,,0.00,TxWx,2013-01-27 13:29:00,
2013-01-27 08:34:00,14.0,10.0,30.52,SW,225,5.0,6.0,88,0.00,,,0.00,TxWx,2013-01-27 13:34:00,
2013-01-27 08:39:00,14.0,9.0,30.52,West,270,5.0,6.0,86,0.00,,,0.00,TxWx,2013-01-27 13:39:00,
2013-01-27 08:44:00,15.0,9.0,30.52,West,270,9.0,11.0,80,0.00,,,0.00,TxWx,2013-01-27 13:44:00,
2013-01-27 08:49:00,15.0,9.0,30.53,North,0,4.0,6.0,80,0.00,,,0.00,TxWx,2013-01-27 13:49:00,
2013-01-27 08:54:00,15.0,9.0,30.53,SW,225,3.0,4.0,79,0.00,,,0.00,TxWx,2013-01-27 13:54:00,
2013-01-27 08:59:00,15.0,8.0,30.53,West,270,6.0,9.0,78,0.00,,,0.00,TxWx,2013-01-27 13:59:00,
2013-01-27 09:04:00,16.0,9.0,30.53,NW,315,8.0,8.0,77,0.00,,,0.00,TxWx,2013-01-27 14:04:00,
2013-01-27 09:09:00,16.0,8.0,30.53,SW,225,5.0,10.0,75,0.00,,,0.00,TxWx,2013-01-27 14:09:00,
2013-01-27 09:14:00,16.0,8.0,30.53,WNW,292,5.0,6.0,73,0.00,,,0.00,TxWx,2013-01-27 14:14:00,
2013-01-27 09:19:00,16.0,7.0,30.53,SW,225,7.0,8.0,72,0.00,,,0.00,TxWx,2013-01-27 14:19:00,
2013-01-27 09:25:00,16.0,7.0,30.53,SSW,202,6.0,6.0,71,0.00,,,0.00,TxWx,2013-01-27 14:25:00,
2013-01-27 09:30:00,17.0,8.0,30.53,NW,315,3.0,3.0,71,0.00,,,0.00,TxWx,2013-01-27 14:30:00,
2013-01-27 09:35:00,17.0,8.0,30.53,NW,315,5.0,6.0,71,0.00,,,0.00,TxWx,2013-01-27 14:35:00,
2013-01-27 09:40:00,17.0,7.0,30.54,WSW,247,4.0,8.0,68,0.00,,,0.00,TxWx,2013-01-27 14:40:00,
2013-01-27 09:45:00,17.0,7.0,30.54,West,270,2.0,3.0,68,0.00,,,0.00,TxWx,2013-01-27 14:45:00,
2013-01-27 09:50:00,18.0,8.0,30.54,WNW,292,8.0,10.0,67,0.00,,,0.00,TxWx,2013-01-27 14:50:00,
2013-01-27 09:55:00,18.0,7.0,30.54,SSW,202,3.0,5.0,66,0.00,,,0.00,TxWx,2013-01-27 14:55:00,
2013-01-27 10:00:00,18.0,7.0,30.55,South,180,4.0,4.0,65,0.00,,,0.00,TxWx,2013-01-27 15:00:00,
2013-01-27 10:05:00,19.0,7.0,30.55,NNE,22,0.0,1.0,62,0.00,,,0.00,TxWx,2013-01-27 15:05:00,
2013-01-27 10:10:00,19.0,7.0,30.55,SW,225,2.0,3.0,62,0.00,,,0.00,TxWx,2013-01-27 15:10:00,
2013-01-27 10:16:00,19.0,6.0,30.56,SSW,202,6.0,7.0,60,0.00,,,0.00,TxWx,2013-01-27 15:16:00,
2013-01-27 10:21:00,19.0,5.0,30.56,WSW,247,8.0,11.0,57,0.00,,,0.00,TxWx,2013-01-27 15:21:00,
2013-01-27 10:26:00,19.0,5.0,30.56,WSW,247,10.0,10.0,56,0.00,,,0.00,TxWx,2013-01-27 15:26:00,
2013-01-27 10:31:00,19.0,4.0,30.56,SW,225,5.0,5.0,55,0.00,,,0.00,TxWx,2013-01-27 15:31:00,
2013-01-27 10:36:00,19.0,5.0,30.56,WSW,247,8.0,9.0,56,0.00,,,0.00,TxWx,2013-01-27 15:36:00,
2013-01-27 10:41:00,20.0,5.0,30.56,West,270,6.0,8.0,54,0.00,,,0.00,TxWx,2013-01-27 15:41:00,
2013-01-27 10:46:00,20.0,5.0,30.56,WSW,247,5.0,7.0,53,0.00,,,0.00,TxWx,2013-01-27 15:46:00,
2013-01-27 10:51:00,20.0,4.0,30.56,SSW,202,4.0,6.0,52,0.00,,,0.00,TxWx,2013-01-27 15:51:00,
2013-01-27 10:56:00,20.0,4.0,30.56,WSW,247,6.0,8.0,52,0.00,,,0.00,TxWx,2013-01-27 15:56:00,
2013-01-27 11:01:00,20.0,4.0,30.56,North,0,3.0,4.0,51,0.00,,,0.00,TxWx,2013-01-27 16:01:00,
2013-01-27 11:06:00,21.0,5.0,30.56,NNW,337,1.0,2.0,52,0.00,,,0.00,TxWx,2013-01-27 16:06:00,
2013-01-27 11:11:00,22.0,6.0,30.55,West,270,3.0,5.0,52,0.00,,,0.00,TxWx,2013-01-27 16:11:00,
2013-01-27 11:16:00,22.0,6.0,30.55,ESE,112,0.0,0.0,52,0.00,,,0.00,TxWx,2013-01-27 16:16:00,
2013-01-27 11:22:00,22.0,5.0,30.55,West,270,7.0,8.0,50,0.00,,,0.00,TxWx,2013-01-27 16:22:00,
2013-01-27 11:27:00,22.0,5.0,30.55,West,270,6.0,6.0,49,0.00,,,0.00,TxWx,2013-01-27 16:27:00,
2013-01-27 11:32:00,22.0,5.0,30.55,SSE,157,1.0,1.0,49,0.00,,,0.00,TxWx,2013-01-27 16:32:00,
2013-01-27 11:37:00,22.0,4.0,30.54,WSW,247,0.0,1.0,48,0.00,,,0.00,TxWx,2013-01-27 16:37:00,
2013-01-27 11:42:00,22.0,4.0,30.54,NW,315,3.0,4.0,48,0.00,,,0.00,TxWx,2013-01-27 16:42:00,
2013-01-27 11:47:00,23.0,5.0,30.54,West,270,3.0,3.0,49,0.00,,,0.00,TxWx,2013-01-27 16:47:00,
2013-01-27 11:52:00,23.0,5.0,30.54,North,0,3.0,3.0,48,0.00,,,0.00,TxWx,2013-01-27 16:52:00,
2013-01-27 11:57:00,23.0,5.0,30.54,North,0,5.0,5.0,48,0.00,,,0.00,TxWx,2013-01-27 16:57:00,
2013-01-27 12:02:00,23.0,5.0,30.54,WSW,247,6.0,7.0,47,0.00,,,0.00,TxWx,2013-01-27 17:02:00,
2013-01-27 12:07:00,23.0,5.0,30.54,WNW,292,2.0,2.0,47,0.00,,,0.00,TxWx,2013-01-27 17:07:00,
2013-01-27 12:12:00,24.0,6.0,30.53,ENE,67,1.0,2.0,47,0.00,,,0.00,TxWx,2013-01-27 17:12:00,
2013-01-27 12:17:00,24.0,4.0,30.53,WNW,292,6.0,6.0,45,0.00,,,0.00,TxWx,2013-01-27 17:17:00,
2013-01-27 12:22:00,24.0,5.0,30.53,WSW,247,2.0,3.0,45,0.00,,,0.00,TxWx,2013-01-27 17:22:00,
2013-01-27 12:28:00,24.0,4.0,30.53,South,180,4.0,5.0,44,0.00,,,0.00,TxWx,2013-01-27 17:28:00,
2013-01-27 12:33:00,25.0,5.0,30.53,South,180,4.0,4.0,43,0.00,,,0.00,TxWx,2013-01-27 17:33:00,
2013-01-27 12:38:00,24.0,3.0,30.53,SW,225,5.0,6.0,42,0.00,,,0.00,TxWx,2013-01-27 17:38:00,
2013-01-27 12:43:00,24.0,3.0,30.53,SSW,202,6.0,6.0,42,0.00,,,0.00,TxWx,2013-01-27 17:43:00,
2013-01-27 12:48:00,25.0,4.0,30.53,South,180,5.0,5.0,41,0.00,,,0.00,TxWx,2013-01-27 17:48:00,
2013-01-27 12:53:00,25.0,4.0,30.52,SSE,157,1.0,2.0,41,0.00,,,0.00,TxWx,2013-01-27 17:53:00,
2013-01-27 12:58:00,25.0,3.0,30.52,South,180,3.0,3.0,41,0.00,,,0.00,TxWx,2013-01-27 17:58:00,
2013-01-27 13:03:00,25.0,3.0,30.52,SSE,157,0.0,1.0,41,0.00,,,0.00,TxWx,2013-01-27 18:03:00,
2013-01-27 13:08:00,26.0,4.0,30.52,East,90,0.0,1.0,41,0.00,,,0.00,TxWx,2013-01-27 18:08:00,
2013-01-27 13:13:00,26.0,4.0,30.52,West,270,1.0,2.0,40,0.00,,,0.00,TxWx,2013-01-27 18:13:00,
2013-01-27 13:18:00,26.0,4.0,30.51,SSW,202,11.0,11.0,40,0.00,,,0.00,TxWx,2013-01-27 18:18:00,
2013-01-27 13:23:00,26.0,3.0,30.51,WNW,292,5.0,5.0,38,0.00,,,0.00,TxWx,2013-01-27 18:23:00,
2013-01-27 13:28:00,26.0,3.0,30.52,NNE,22,0.0,0.0,39,0.00,,,0.00,TxWx,2013-01-27 18:28:00,
2013-01-27 13:33:00,26.0,3.0,30.51,WSW,247,6.0,7.0,38,0.00,,,0.00,TxWx,2013-01-27 18:33:00,
2013-01-27 13:38:00,26.0,2.0,30.51,WNW,292,3.0,3.0,36,0.00,,,0.00,TxWx,2013-01-27 18:38:00,
2013-01-27 13:44:00,26.0,2.0,30.50,NE,45,0.0,1.0,37,0.00,,,0.00,TxWx,2013-01-27 18:44:00,
2013-01-27 13:49:00,26.0,2.0,30.51,SW,225,4.0,4.0,36,0.00,,,0.00,TxWx,2013-01-27 18:49:00,
2013-01-27 13:56:00,26.0,2.0,30.51,SSE,157,6.0,7.0,36,0.00,,,0.00,TxWx,2013-01-27 18:56:00,
2013-01-27 14:00:00,18.0,7.0,30.51,ESE,112,0.0,0.0,65,0.00,,,0.00,TxWx,2013-01-27 19:00:00,
2013-01-27 14:01:00,27.0,3.0,30.51,SW,225,5.0,6.0,36,0.00,,,0.00,TxWx,2013-01-27 19:01:00,
2013-01-27 14:03:00,18.0,7.0,30.52,ESE,112,0.0,0.0,65,0.00,,,0.00,TxWx,2013-01-27 19:03:00,
2013-01-27 14:04:00,18.0,7.0,30.51,ESE,112,0.0,0.0,65,0.00,,,0.00,TxWx,2013-01-27 19:04:00,
2013-01-27 14:05:00,18.0,7.0,30.52,ESE,112,0.0,0.0,65,0.00,,,0.00,TxWx,2013-01-27 19:05:00,
2013-01-27 14:06:00,27.0,2.0,30.50,ENE,67,0.0,0.0,36,0.00,,,0.00,TxWx,2013-01-27 19:06:00,
2013-01-27 14:07:00,18.0,7.0,30.52,ESE,112,0.0,0.0,65,0.00,,,0.00,TxWx,2013-01-27 19:07:00,
2013-01-27 14:11:00,28.0,3.0,30.50,NNW,337,5.0,6.0,36,0.00,,,0.00,TxWx,2013-01-27 19:11:00,
2013-01-27 14:16:00,27.0,2.0,30.50,South,180,0.0,1.0,35,0.00,,,0.00,TxWx,2013-01-27 19:16:00,
2013-01-27 14:21:00,27.0,2.0,30.50,WNW,292,3.0,5.0,36,0.00,,,0.00,TxWx,2013-01-27 19:21:00,
2013-01-27 14:26:00,28.0,3.0,30.50,West,270,3.0,3.0,36,0.00,,,0.00,TxWx,2013-01-27 19:26:00,
2013-01-27 14:30:00,17.0,7.0,30.52,NE,45,0.0,0.0,67,0.00,,,0.00,TxWx,2013-01-27 19:30:00,
2013-01-27 14:31:00,28.0,3.0,30.50,NNW,337,3.0,5.0,35,0.00,,,0.00,TxWx,2013-01-27 19:31:00,
2013-01-27 14:32:00,17.0,7.0,30.52,NE,45,0.0,0.0,68,0.00,,,0.00,TxWx,2013-01-27 19:32:00,
2013-01-27 14:33:00,17.0,7.0,30.53,NE,45,0.0,0.0,68,0.00,,,0.00,TxWx,2013-01-27 19:33:00,
2013-01-27 14:37:00,28.0,3.0,30.50,South,180,0.0,0.0,35,0.00,,,0.00,TxWx,2013-01-27 19:37:00,
2013-01-27 14:42:00,28.0,2.0,30.50,WSW,247,8.0,9.0,34,0.00,,,0.00,TxWx,2013-01-27 19:42:00,
2013-01-27 14:47:00,28.0,2.0,30.50,WNW,292,4.0,4.0,34,0.00,,,0.00,TxWx,2013-01-27 19:47:00,
2013-01-27 14:52:00,28.0,2.0,30.50,WSW,247,1.0,2.0,34,0.00,,,0.00,TxWx,2013-01-27 19:52:00,
2013-01-27 14:57:00,28.0,2.0,30.50,SSW,202,4.0,5.0,33,0.00,,,0.00,TxWx,2013-01-27 19:57:00,
2013-01-27 15:02:00,28.0,2.0,30.50,WSW,247,6.0,7.0,33,0.00,,,0.00,TxWx,2013-01-27 20:02:00,
2013-01-27 15:07:00,28.0,1.0,30.50,West,270,5.0,7.0,33,0.00,,,0.00,TxWx,2013-01-27 20:07:00,
2013-01-27 15:12:00,28.0,1.0,30.50,WSW,247,8.0,8.0,33,0.00,,,0.00,TxWx,2013-01-27 20:12:00,
2013-01-27 15:17:00,28.0,1.0,30.50,WSW,247,5.0,5.0,32,0.00,,,0.00,TxWx,2013-01-27 20:17:00,
2013-01-27 15:22:00,28.0,1.0,30.50,SSE,157,2.0,4.0,32,0.00,,,0.00,TxWx,2013-01-27 20:22:00,
2013-01-27 15:27:00,28.0,1.0,30.50,SW,225,6.0,8.0,33,0.00,,,0.00,TxWx,2013-01-27 20:27:00,
2013-01-27 15:32:00,28.0,1.0,30.51,West,270,5.0,7.0,32,0.00,,,0.00,TxWx,2013-01-27 20:32:00,
2013-01-27 15:34:00,17.0,8.0,30.51,NNE,22,2.0,3.0,70,0.00,,,0.00,TxWx,2013-01-27 20:34:00,
2013-01-27 15:35:00,17.0,8.0,30.51,NNE,22,1.0,3.0,70,0.00,,,0.00,TxWx,2013-01-27 20:35:00,
2013-01-27 15:36:00,17.0,8.0,30.51,NNE,22,1.0,3.0,70,0.00,,,0.00,TxWx,2013-01-27 20:36:00,
2013-01-27 15:37:00,28.0,1.0,30.51,NW,315,3.0,5.0,32,0.00,,,0.00,TxWx,2013-01-27 20:37:00,
2013-01-27 15:38:00,17.0,8.0,30.50,NE,45,2.0,3.0,70,0.00,,,0.00,TxWx,2013-01-27 20:38:00,
2013-01-27 15:43:00,28.0,1.0,30.51,WSW,247,8.0,8.0,32,0.00,,,0.00,TxWx,2013-01-27 20:43:00,
2013-01-27 15:48:00,28.0,0.0,30.51,WSW,247,5.0,5.0,31,0.00,,,0.00,TxWx,2013-01-27 20:48:00,
2013-01-27 15:53:00,28.0,1.0,30.51,WNW,292,3.0,3.0,32,0.00,,,0.00,TxWx,2013-01-27 20:53:00,
2013-01-27 15:58:00,28.0,1.0,30.52,SSW,202,7.0,10.0,32,0.00,,,0.00,TxWx,2013-01-27 20:58:00,
2013-01-27 16:03:00,28.0,1.0,30.53,SW,225,8.0,11.0,32,0.00,,,0.00,TxWx,2013-01-27 21:03:00,
2013-01-27 16:08:00,28.0,1.0,30.52,SW,225,8.0,8.0,32,0.00,,,0.00,TxWx,2013-01-27 21:08:00,
2013-01-27 16:13:00,28.0,1.0,30.52,SSW,202,5.0,5.0,32,0.00,,,0.00,TxWx,2013-01-27 21:13:00,
2013-01-27 16:18:00,28.0,1.0,30.51,WSW,247,3.0,5.0,32,0.00,,,0.00,TxWx,2013-01-27 21:18:00,
2013-01-27 16:23:00,28.0,1.0,30.51,SW,225,4.0,5.0,33,0.00,,,0.00,TxWx,2013-01-27 21:23:00,
2013-01-27 16:28:00,28.0,2.0,30.52,SW,225,3.0,5.0,33,0.00,,,0.00,TxWx,2013-01-27 21:28:00,
2013-01-27 16:33:00,27.0,1.0,30.52,WSW,247,3.0,3.0,33,0.00,,,0.00,TxWx,2013-01-27 21:33:00,
2013-01-27 16:39:00,27.0,1.0,30.52,WNW,292,4.0,5.0,34,0.00,,,0.00,TxWx,2013-01-27 21:39:00,
2013-01-27 16:44:00,27.0,1.0,30.53,WNW,292,3.0,5.0,33,0.00,,,0.00,TxWx,2013-01-27 21:44:00,
2013-01-27 16:49:00,27.0,1.0,30.53,SSW,202,4.0,4.0,34,0.00,,,0.00,TxWx,2013-01-27 21:49:00,
2013-01-27 16:54:00,27.0,1.0,30.53,SW,225,4.0,4.0,34,0.00,,,0.00,TxWx,2013-01-27 21:54:00,
2013-01-27 16:59:00,27.0,1.0,30.53,West,270,3.0,3.0,34,0.00,,,0.00,TxWx,2013-01-27 21:59:00,
2013-01-27 17:04:00,26.0,0.0,30.53,WNW,292,3.0,5.0,34,0.00,,,0.00,TxWx,2013-01-27 22:04:00,
2013-01-27 17:09:00,26.0,0.0,30.53,SSW,202,2.0,3.0,34,0.00,,,0.00,TxWx,2013-01-27 22:09:00,
2013-01-27 17:14:00,26.0,0.0,30.53,West,270,3.0,3.0,34,0.00,,,0.00,TxWx,2013-01-27 22:14:00,
2013-01-27 17:19:00,26.0,0.0,30.53,WNW,292,3.0,3.0,34,0.00,,,0.00,TxWx,2013-01-27 22:19:00,
2013-01-27 17:24:00,26.0,0.0,30.53,WNW,292,2.0,3.0,34,0.00,,,0.00,TxWx,2013-01-27 22:24:00,
2013-01-27 17:29:00,25.0,0.0,30.53,NW,315,4.0,5.0,35,0.00,,,0.00,TxWx,2013-01-27 22:29:00,
2013-01-27 17:34:00,25.0,0.0,30.52,NNW,337,0.0,0.0,35,0.00,,,0.00,TxWx,2013-01-27 22:34:00,
2013-01-27 17:40:00,25.0,0.0,30.53,SW,225,5.0,6.0,36,0.00,,,0.00,TxWx,2013-01-27 22:40:00,
2013-01-27 17:45:00,25.0,0.0,30.53,ENE,67,2.0,3.0,36,0.00,,,0.00,TxWx,2013-01-27 22:45:00,
2013-01-27 17:50:00,25.0,1.0,30.53,NE,45,0.0,1.0,37,0.00,,,0.00,TxWx,2013-01-27 22:50:00,
2013-01-27 17:55:00,25.0,1.0,30.53,North,0,2.0,2.0,37,0.00,,,0.00,TxWx,2013-01-27 22:55:00,
2013-01-27 18:00:00,25.0,1.0,30.53,NNW,337,3.0,5.0,37,0.00,,,0.00,TxWx,2013-01-27 23:00:00,
2013-01-27 18:05:00,25.0,2.0,30.53,WNW,292,3.0,3.0,38,0.00,,,0.00,TxWx,2013-01-27 23:05:00,
2013-01-27 18:10:00,24.0,1.0,30.53,WSW,247,3.0,4.0,39,0.00,,,0.00,TxWx,2013-01-27 23:10:00,
2013-01-27 18:15:00,24.0,1.0,30.53,WNW,292,5.0,5.0,39,0.00,,,0.00,TxWx,2013-01-27 23:15:00,
2013-01-27 18:20:00,24.0,2.0,30.53,SW,225,8.0,8.0,39,0.00,,,0.00,TxWx,2013-01-27 23:20:00,
2013-01-27 18:25:00,24.0,2.0,30.54,SW,225,3.0,5.0,40,0.00,,,0.00,TxWx,2013-01-27 23:25:00,
2013-01-27 18:30:00,24.0,2.0,30.54,West,270,8.0,8.0,40,0.00,,,0.00,TxWx,2013-01-27 23:30:00,
2013-01-27 18:35:00,24.0,2.0,30.55,SW,225,6.0,8.0,40,0.00,,,0.00,TxWx,2013-01-27 23:35:00,
2013-01-27 18:40:00,23.0,2.0,30.55,NNW,337,2.0,5.0,41,0.00,,,0.00,TxWx,2013-01-27 23:40:00,
2013-01-27 18:46:00,23.0,2.0,30.54,NW,315,6.0,6.0,41,0.00,,,0.00,TxWx,2013-01-27 23:46:00,
2013-01-27 18:51:00,23.0,2.0,30.54,SSE,157,0.0,0.0,41,0.00,,,0.00,TxWx,2013-01-27 23:51:00,
2013-01-27 18:56:00,23.0,2.0,30.54,NNW,337,3.0,3.0,41,0.00,,,0.00,TxWx,2013-01-27 23:56:00,
2013-01-27 19:01:00,23.0,2.0,30.54,NE,45,0.0,0.0,42,0.00,,,0.00,TxWx,2013-01-28 00:01:00,
2013-01-27 19:06:00,23.0,2.0,30.53,East,90,0.0,0.0,42,0.00,,,0.00,TxWx,2013-01-28 00:06:00,
2013-01-27 19:11:00,23.0,2.0,30.53,NNE,22,2.0,3.0,42,0.00,,,0.00,TxWx,2013-01-28 00:11:00,
2013-01-27 19:16:00,23.0,3.0,30.52,ENE,67,0.0,0.0,43,0.00,,,0.00,TxWx,2013-01-28 00:16:00,
2013-01-27 19:21:00,23.0,3.0,30.53,ESE,112,0.0,0.0,43,0.00,,,0.00,TxWx,2013-01-28 00:21:00,
2013-01-27 19:26:00,22.0,2.0,30.53,NE,45,0.0,0.0,43,0.00,,,0.00,TxWx,2013-01-28 00:26:00,
2013-01-27 19:31:00,22.0,2.0,30.53,ESE,112,0.0,0.0,44,0.00,,,0.00,TxWx,2013-01-28 00:31:00,
2013-01-27 19:36:00,22.0,3.0,30.53,NE,45,0.0,1.0,45,0.00,,,0.00,TxWx,2013-01-28 00:36:00,
2013-01-27 19:41:00,22.0,3.0,30.53,SSE,157,0.0,1.0,45,0.00,,,0.00,TxWx,2013-01-28 00:41:00,
2013-01-27 19:47:00,22.0,3.0,30.53,SSE,157,0.0,0.0,45,0.00,,,0.00,TxWx,2013-01-28 00:47:00,
2013-01-27 19:52:00,22.0,3.0,30.53,ENE,67,0.0,1.0,45,0.00,,,0.00,TxWx,2013-01-28 00:52:00,
2013-01-27 19:57:00,22.0,3.0,30.53,ESE,112,0.0,0.0,46,0.00,,,0.00,TxWx,2013-01-28 00:57:00,
2013-01-27 20:02:00,22.0,3.0,30.52,ENE,67,0.0,0.0,46,0.00,,,0.00,TxWx,2013-01-28 01:02:00,
2013-01-27 20:07:00,22.0,3.0,30.53,SSE,157,1.0,2.0,46,0.00,,,0.00,TxWx,2013-01-28 01:07:00,
2013-01-27 20:12:00,21.0,3.0,30.53,SSE,157,0.0,0.0,47,0.00,,,0.00,TxWx,2013-01-28 01:12:00,
2013-01-27 20:17:00,21.0,3.0,30.53,NE,45,0.0,0.0,47,0.00,,,0.00,TxWx,2013-01-28 01:17:00,
2013-01-27 20:22:00,21.0,3.0,30.53,North,0,0.0,0.0,47,0.00,,,0.00,TxWx,2013-01-28 01:22:00,
2013-01-27 20:27:00,21.0,3.0,30.53,NNE,22,0.0,0.0,48,0.00,,,0.00,TxWx,2013-01-28 01:27:00,
2013-01-27 20:32:00,21.0,3.0,30.52,NE,45,0.0,0.0,48,0.00,,,0.00,TxWx,2013-01-28 01:32:00,
2013-01-27 20:37:00,21.0,4.0,30.52,SW,225,0.0,0.0,49,0.00,,,0.00,TxWx,2013-01-28 01:37:00,
2013-01-27 20:42:00,21.0,4.0,30.52,SSW,202,0.0,0.0,50,0.00,,,0.00,TxWx,2013-01-28 01:42:00,
2013-01-27 20:48:00,20.0,3.0,30.52,East,90,0.0,0.0,50,0.00,,,0.00,TxWx,2013-01-28 01:48:00,
2013-01-27 20:53:00,20.0,4.0,30.52,NNE,22,0.0,1.0,52,0.00,,,0.00,TxWx,2013-01-28 01:53:00,
2013-01-27 20:58:00,20.0,4.0,30.52,ENE,67,0.0,0.0,52,0.00,,,0.00,TxWx,2013-01-28 01:58:00,
2013-01-27 21:03:00,20.0,5.0,30.53,SW,225,0.0,0.0,53,0.00,,,0.00,TxWx,2013-01-28 02:03:00,
2013-01-27 21:08:00,20.0,5.0,30.53,SW,225,0.0,0.0,53,0.00,,,0.00,TxWx,2013-01-28 02:08:00,
2013-01-27 21:13:00,19.0,4.0,30.53,SW,225,0.0,0.0,54,0.00,,,0.00,TxWx,2013-01-28 02:13:00,
2013-01-27 21:18:00,19.0,4.0,30.53,SW,225,0.0,0.0,54,0.00,,,0.00,TxWx,2013-01-28 02:18:00,
2013-01-27 21:23:00,19.0,4.0,30.53,SW,225,0.0,0.0,54,0.00,,,0.00,TxWx,2013-01-28 02:23:00,
2013-01-27 21:28:00,19.0,4.0,30.53,ENE,67,0.0,0.0,54,0.00,,,0.00,TxWx,2013-01-28 02:28:00,
2013-01-27 21:33:00,19.0,5.0,30.52,ENE,67,0.0,0.0,56,0.00,,,0.00,TxWx,2013-01-28 02:33:00,
2013-01-27 21:38:00,19.0,5.0,30.53,ENE,67,0.0,0.0,57,0.00,,,0.00,TxWx,2013-01-28 02:38:00,
2013-01-27 21:43:00,19.0,5.0,30.53,NNE,22,0.0,0.0,58,0.00,,,0.00,TxWx,2013-01-28 02:43:00,
2013-01-27 21:48:00,19.0,5.0,30.53,North,0,0.0,0.0,58,0.00,,,0.00,TxWx,2013-01-28 02:48:00,
2013-01-27 21:54:00,18.0,5.0,30.53,NNW,337,0.0,0.0,59,0.00,,,0.00,TxWx,2013-01-28 02:54:00,
2013-01-27 21:59:00,18.0,5.0,30.53,NNW,337,0.0,0.0,60,0.00,,,0.00,TxWx,2013-01-28 02:59:00,
2013-01-27 22:04:00,18.0,5.0,30.54,NNW,337,0.0,0.0,59,0.00,,,0.00,TxWx,2013-01-28 03:04:00,
2013-01-27 22:09:00,18.0,5.0,30.54,NNW,337,0.0,0.0,59,0.00,,,0.00,TxWx,2013-01-28 03:09:00,
2013-01-27 22:14:00,19.0,6.0,30.53,ENE,67,0.0,0.0,60,0.00,,,0.00,TxWx,2013-01-28 03:14:00,
2013-01-27 22:19:00,18.0,5.0,30.53,NE,45,4.0,4.0,60,0.00,,,0.00,TxWx,2013-01-28 03:19:00,
2013-01-27 22:24:00,18.0,6.0,30.52,NNE,22,1.0,3.0,61,0.00,,,0.00,TxWx,2013-01-28 03:24:00,
2013-01-27 22:29:00,17.0,5.0,30.52,NNE,22,0.0,0.0,62,0.00,,,0.00,TxWx,2013-01-28 03:29:00,
2013-01-27 22:34:00,17.0,5.0,30.53,NNE,22,0.0,0.0,62,0.00,,,0.00,TxWx,2013-01-28 03:34:00,
2013-01-27 22:39:00,18.0,7.0,30.53,SW,225,0.0,0.0,63,0.00,,,0.00,TxWx,2013-01-28 03:39:00,
2013-01-27 22:44:00,18.0,7.0,30.53,ENE,67,0.0,0.0,63,0.00,,,0.00,TxWx,2013-01-28 03:44:00,
2013-01-27 22:49:00,18.0,7.0,30.53,ENE,67,0.0,0.0,64,0.00,,,0.00,TxWx,2013-01-28 03:49:00,
2013-01-27 22:54:00,18.0,7.0,30.53,ENE,67,0.0,0.0,64,0.00,,,0.00,TxWx,2013-01-28 03:54:00,
2013-01-27 22:58:00,22.0,13.0,30.38,ENE,67,1.0,1.0,70,0.00,,,0.00,TxWx,2013-01-28 03:58:00,
2013-01-27 22:59:00,18.0,7.0,30.53,ENE,67,0.0,0.0,64,0.00,,,0.00,TxWx,2013-01-28 03:59:00,
2013-01-27 23:04:00,18.0,7.0,30.52,ENE,67,0.0,0.0,64,0.00,,,0.00,TxWx,2013-01-28 04:04:00,
2013-01-27 23:10:00,18.0,7.0,30.52,ENE,67,0.0,0.0,65,0.00,,,0.00,TxWx,2013-01-28 04:10:00,
2013-01-27 23:15:00,18.0,7.0,30.52,East,90,0.0,0.0,65,0.00,,,0.00,TxWx,2013-01-28 04:15:00,
2013-01-27 23:20:00,18.0,7.0,30.52,East,90,0.0,0.0,65,0.00,,,0.00,TxWx,2013-01-28 04:20:00,
2013-01-27 23:21:00,22.0,13.0,30.36,East,90,0.0,0.0,70,0.00,,,0.00,TxWx,2013-01-28 04:21:00,
2013-01-27 23:22:00,22.0,13.0,30.36,East,90,0.0,0.0,70,0.00,,,0.00,TxWx,2013-01-28 04:22:00,
2013-01-27 23:23:00,22.0,13.0,30.36,ENE,67,0.0,0.0,70,0.00,,,0.00,TxWx,2013-01-28 04:23:00,
2013-01-27 23:25:00,18.0,7.0,30.52,ESE,112,0.0,0.0,66,0.00,,,0.00,TxWx,2013-01-28 04:25:00,
2013-01-27 23:30:00,18.0,8.0,30.51,ESE,112,0.0,0.0,66,0.00,,,0.00,TxWx,2013-01-28 04:30:00,
2013-01-27 23:35:00,18.0,8.0,30.51,ESE,112,0.0,0.0,66,0.00,,,0.00,TxWx,2013-01-28 04:35:00,
2013-01-27 23:39:00,23.0,13.0,30.35,ESE,112,1.0,2.0,68,0.00,,,0.00,TxWx,2013-01-28 04:39:00,
2013-01-27 23:40:00,18.0,8.0,30.51,ESE,112,0.0,0.0,66,0.00,,,0.00,TxWx,2013-01-28 04:40:00,
2013-01-27 23:45:00,18.0,8.0,30.51,ESE,112,0.0,0.0,66,0.00,,,0.00,TxWx,2013-01-28 04:45:00,
2013-01-27 23:50:00,18.0,7.0,30.51,ESE,112,0.0,0.0,66,0.00,,,0.00,TxWx,2013-01-28 04:50:00,
2013-01-27 23:55:00,18.0,7.0,30.51,ESE,112,0.0,0.0,65,0.00,,,0.00,TxWx,2013-01-28 04:55:00,